Location: *
(42.4447°N, 76.4843°W)
Time: 22:30:27
(UTC+00:00)

Daily predictions for brighter satellites

Satellite Brightness Start Highest point End
(mag) Time Altitude Azimuth Time Altitude Azimuth Time Altitude Azimuth
SL-24 R/B 4.3 23:18:42 10° SSE 23:23:07 88° ENE 23:27:58 10° NNW
Okean 2 Rocket 3.6 23:20:33 10° SSE 23:24:43 39° E 23:28:52 10° NNE
YAOGAN 1 2.8 23:21:20 10° SE 23:25:28 48° ENE 23:29:39 10° N
Cosmos 2298 Rocket 4.2 23:20:44 10° S 23:25:52 51° ESE 23:31:02 10° NNE
Cosmos 1025 Rocket 3.8 23:22:06 10° NNE 23:26:04 32° ENE 23:29:59 10° SE
Iridium 4 Rocket 3.8 23:21:01 10° S 23:26:08 83° W 23:31:45 10° N
Cosmos 1943 4.3 23:24:11 10° NW 23:29:39 50° WSW 23:35:05 10° S
SKYMED 2 4.0 23:27:06 10° N 23:31:26 69° WNW 23:35:44 10° SSW
Okean 2 4.5 23:28:17 10° NNW 23:32:20 51° W 23:36:21 10° S
NOSS 3-4 (A) 4.3 23:27:53 10° SSE 23:32:38 26° ESE 23:37:33 10° ENE
NOSS 3-4 (C) 4.3 23:28:02 10° SSE 23:32:45 26° ESE 23:37:38 10° ENE
CSL-04 Debris 4.4 23:29:21 10° SE 23:34:29 48° ENE 23:39:39 10° N
CSL-04 Rocket 4.0 23:30:59 10° SE 23:36:10 47° ENE 23:41:27 10° N
Cosmos 1536 Rocket 4.4 23:32:39 10° NNE 23:36:39 31° ENE 23:40:37 10° SE
CZ-2D R/B 3.4 23:33:33 10° S 23:37:26 84° W 23:41:20 10° NNW
CZ-4 R/B 1.4 23:35:28 10° SSE 23:39:40 83° ENE 23:43:52 10° N
Cosmos 1674 4.0 23:38:54 10° NNE 23:41:52 21° ENE 23:44:49 10° SE
Cosmos 1125 Rocket 3.8 23:40:45 10° S 23:45:49 47° ESE 23:50:54 10° NNE
Shenzhou-11 Module 2.3 23:44:42 10° SW 23:46:34 27° SSE 23:47:32 19° ESE
CENTAUR R/B 3.4 23:40:06 10° NNW 23:47:59 53° NE 23:56:27 10° ESE
Okean-O 3.0 23:43:43 10° S 23:48:08 70° WSW 23:52:34 10° NNW
SJ-11-01 4.5 23:44:05 10° SSE 23:48:38 51° ENE 23:53:12 10° N
Cosmos 2150 Rocket 4.1 23:47:55 10° SSW 23:53:18 83° ESE 23:58:47 10° NNE
Exosat Rocket 3.9 23:48:44 10° S 23:54:00 43° ESE 23:58:43 10° NE
HJ-1C 3.4 23:53:24 10° SSE 23:56:36 53° ENE 23:59:51 10° N
